Location: Ciserano
(45.5833°N, 9.6000°E)
Time: 09:50:30
(UTC+00:00)

Meteor 1-26 Rocket - Pass Details

Date: 29 November 2020
Orbit: 807 x 928 km, 81.3° (Epoch: 25 January)

Event Time Altitude Azimuth Distance (km) Brightness Sun altitude
Exits shadow 04:49:20 15° 335° (NNW) 2,230 6.0 -18.7°
Maximum altitude 04:53:55 46° 267° (W) 1,150 4.5 -17.9°
Drops below altitude 10° 04:59:12 10° 196° (SSW) 2,456 6.6 -17.0°
Sets 05:01:39 0° 190° (S) 3,370 7.4 -16.6°
